FOREST GROVE OR US AGRIMET current weather conditions

sailwx.info

Wind from 282 at 1 knots gusting 4

Air temperature 14.7° C
Dewpoint 11.2° C

Last reported at 2017-Sep-25 06:30 UTC.
Time now 2017-Sep-25 08:04 UTC

Location: N 45°33' W 123°05'.
View on Google Maps.

See reports from other nearby stations

  
Tides and Currents Weather Stations Pressure Air Temp Water Temp Dewpoint Dewpoint Depression Visibility Wind Speed Wind Dir Waves Ship Positions
date/time (UTC)wind fromknots sea level pressurealtimeterstation pressurevisibilityair tempwater tempwave heightnotes
2017-Sep-25 06:30 282 1 gusting 4 14.7
2017-Sep-25 06:15 297 1 gusting 5 15.1
2017-Sep-25 06:00 303 1 gusting 4 15.2
2017-Sep-25 05:45 315 2 gusting 6 15.5
2017-Sep-25 05:30 328 3 gusting 8 15.9
2017-Sep-25 05:15 334 3 gusting 5 16.1
2017-Sep-25 05:00 331 3 gusting 6 16.4
2017-Sep-25 04:45 332 3 gusting 6 16.6
2017-Sep-25 04:30 338 3 gusting 6 17.0
2017-Sep-25 04:15 341 4 gusting 6 17.4
2017-Sep-25 04:00 333 3 gusting 4 17.5
2017-Sep-25 03:45 333 3 gusting 5 17.9
2017-Sep-25 03:30 332 3 gusting 5 18.1
2017-Sep-25 03:15 320 2 gusting 3 18.2
2017-Sep-25 03:00 332 3 gusting 7 18.6
2017-Sep-25 02:45 326 3 gusting 6 19.2
2017-Sep-25 02:30 331 1 gusting 2 19.2
2017-Sep-25 02:15 332 1 gusting 3 19.6
2017-Sep-25 02:00 342 1 gusting 2 19.9
2017-Sep-25 01:45 014 2 gusting 3 20.1
2017-Sep-25 01:30 024 2 gusting 4 20.6
2017-Sep-25 01:15 031 3 gusting 6 21.1
2017-Sep-25 01:00 018 3 gusting 7 21.3
2017-Sep-25 00:45 359 4 gusting 9 21.8
2017-Sep-25 00:30 344 4 gusting 8 22.5
2017-Sep-25 00:15 335 4 gusting 9 22.9
2017-Sep-25 00:00 332 5 gusting 10 22.9
2017-Sep-24 23:45 328 5 gusting 10 22.9
2017-Sep-24 23:30 331 5 gusting 11 23.2
2017-Sep-24 23:15 322 4 gusting 10 23.5
2017-Sep-24 23:00 324 4 gusting 10 23.6
2017-Sep-24 22:45 295 2 gusting 7 23.9
2017-Sep-24 22:30 353 2 gusting 6 22.6
2017-Sep-24 22:15 056 1 gusting 4 22.6
2017-Sep-24 22:00 040 3 gusting 6 22.2
2017-Sep-24 21:45 121 2 gusting 6 21.8
2017-Sep-24 21:30 101 2 gusting 5 21.7
2017-Sep-24 21:15 080 2 gusting 5 21.2
2017-Sep-24 21:00 110 2 gusting 6 21.1
2017-Sep-24 20:45 106 2 gusting 5 20.4
2017-Sep-24 20:30 123 2 gusting 5 20.8
2017-Sep-24 20:15 045 1 gusting 4 20.0
2017-Sep-24 20:00 015 2 gusting 5 19.2
2017-Sep-24 19:45 085 2 gusting 6 18.6
2017-Sep-24 19:30 219 2 gusting 5 18.1
2017-Sep-24 19:15 124 1 gusting 4 18.0
2017-Sep-24 19:00 079 1 gusting 4 17.3
2017-Sep-24 18:45 094 1 gusting 4 16.9
2017-Sep-24 18:30 139 1 gusting 5 16.4
2017-Sep-24 18:15 136 1 gusting 4 15.2
2017-Sep-24 18:00 118 2 gusting 4 14.6
2017-Sep-24 17:45 145 1 gusting 3 14.2
2017-Sep-24 17:30 137 1 gusting 3 12.6
2017-Sep-24 17:15 155 1 gusting 3 11.8
2017-Sep-24 17:00 145 1 gusting 3 11.9
2017-Sep-24 16:45 163 2 gusting 4 12.2
2017-Sep-24 16:30 168 2 gusting 4 11.9
2017-Sep-24 16:15 176 0 gusting 2 11.8
2017-Sep-24 16:00 201 0 gusting 2 11.1
2017-Sep-24 15:45 210 0 gusting 1 10.7
2017-Sep-24 15:30 221 0 gusting 2 10.3
2017-Sep-24 15:15 189 1 gusting 2 9.8
2017-Sep-24 15:00 138 1 gusting 2 9.4
2017-Sep-24 14:45 131 0 gusting 1 8.4
2017-Sep-24 14:30 128 0 gusting 2 7.4
2017-Sep-24 14:15 117 0 gusting 0 7.3
2017-Sep-24 14:00 117 0 gusting 1 5.4 7.2
2017-Sep-24 13:45 024 0 gusting 1 7.8
2017-Sep-24 13:30 024 0 gusting 1 7.4
2017-Sep-24 13:15 030 0 gusting 1 7.7
2017-Sep-24 13:00 266 0 gusting 2 5.4 8.4
2017-Sep-24 12:45 269 0 gusting 2 8.5
2017-Sep-24 12:30 281 0 gusting 1 8.6
2017-Sep-24 12:15 265 2 gusting 3 8.6
2017-Sep-24 12:00 270 1 gusting 3 5.4 8.8
2017-Sep-24 11:45 197 1 gusting 2 8.7
2017-Sep-24 11:30 165 1 gusting 2 8.2
2017-Sep-24 11:15 145 0 gusting 1 7.6
2017-Sep-24 11:00 036 0 gusting 0 5.4 8.3
2017-Sep-24 10:45 211 0 gusting 1 8.8
2017-Sep-24 10:30 235 0 gusting 1 9.6
2017-Sep-24 10:15 191 0 gusting 1 8.9
2017-Sep-24 10:00 202 0 gusting 1 5.4 8.7
2017-Sep-24 09:45 234 0 gusting 0 9.3
2017-Sep-24 09:30 244 0 gusting 1 10.2
2017-Sep-24 09:15 270 0 gusting 0 10.1
2017-Sep-24 09:00 213 0 gusting 1 5.410.5
2017-Sep-24 08:45 259 0 gusting 0 10.0
2017-Sep-24 08:30 263 0 gusting 2 10.8
2017-Sep-24 08:15 259 1 gusting 2 10.4
2017-Sep-24 08:00 263 1 gusting 2 5.410.4
2017-Sep-24 07:45 251 0 gusting 1 11.2
2017-Sep-24 07:30 191 0 gusting 1 11.2
2017-Sep-24 07:15 334 1 gusting 2 11.1
2017-Sep-24 07:00 329 1 gusting 2 5.412.1
2017-Sep-24 06:45 357 1 gusting 2 11.2
2017-Sep-24 06:00 347 1 gusting 4 12.3
2017-Sep-24 05:45 349 2 gusting 4 12.7
2017-Sep-24 05:00 348 1 gusting 3 13.2
2017-Sep-24 04:45 349 1 gusting 3 12.7
2017-Sep-24 04:30 332 2 gusting 4 14.4
2017-Sep-24 04:15 341 2 gusting 4 14.2
2017-Sep-24 04:00 335 2 gusting 4 14.2
2017-Sep-24 03:45 336 2 gusting 4 14.5
2017-Sep-24 03:30 342 1 gusting 4 14.3
2017-Sep-24 03:15 317 1 gusting 2 14.3
2017-Sep-24 03:00 320 1 gusting 4 14.7
2017-Sep-24 02:45 325 2 gusting 5 14.5
2017-Sep-24 02:30 265 1 gusting 2 14.8
2017-Sep-24 02:15 276 0 gusting 2 15.7
2017-Sep-24 02:00 273 0 gusting 1 16.6
2017-Sep-24 01:45 269 0 gusting 1 17.0
2017-Sep-24 01:30 282 0 gusting 1 17.9
2017-Sep-24 01:15 18.5
2017-Sep-24 01:00 20.0
2017-Sep-24 00:45 19.1
2017-Sep-24 00:30 304 0 gusting 0 19.4
2017-Sep-24 00:15 358 0 gusting 1 19.6
2017-Sep-24 00:00 19.7
2017-Sep-23 23:45 038 1 gusting 3 19.8
2017-Sep-23 23:30 286 1 gusting 3 20.5
2017-Sep-23 23:15 082 2 gusting 5 20.3
2017-Sep-23 23:00 075 2 gusting 6 20.4
2017-Sep-23 22:45 144 1 gusting 6 20.9
2017-Sep-23 22:30 347 1 gusting 4 20.4
2017-Sep-23 22:15 104 2 gusting 5 19.8
2017-Sep-23 22:00 141 2 gusting 6 20.3
2017-Sep-23 21:45 119 2 gusting 5 20.2
2017-Sep-23 21:30 077 2 gusting 5 19.4
2017-Sep-23 21:15 114 3 gusting 7 19.3
2017-Sep-23 21:00 074 2 gusting 5 18.9
2017-Sep-23 20:45 130 2 gusting 7 18.8
2017-Sep-23 20:30 176 2 gusting 7 18.6
2017-Sep-23 20:15 162 3 gusting 8 18.4
2017-Sep-23 20:00 131 3 gusting 6 17.7
2017-Sep-23 19:45 100 2 gusting 5 17.7
2017-Sep-23 19:30 127 3 gusting 7 17.1
2017-Sep-23 19:15 132 2 gusting 6 17.2
2017-Sep-23 19:00 122 3 gusting 6 16.3
2017-Sep-23 18:45 083 2 gusting 7 16.0
2017-Sep-23 18:30 072 2 gusting 4 15.5
2017-Sep-23 18:15 079 2 gusting 4 15.2
2017-Sep-23 17:30 178 0 gusting 2 13.3
2017-Sep-23 17:15 293 0 gusting 2 12.8
2017-Sep-23 17:00 319 0 gusting 1 12.5
2017-Sep-23 16:45 353 0 gusting 2 12.0
2017-Sep-23 16:30 331 0 gusting 3 11.6
2017-Sep-23 16:15 300 1 gusting 3 11.4
2017-Sep-23 16:00 346 1 gusting 2 11.0
2017-Sep-23 15:45 301 0 gusting 2 10.7
2017-Sep-23 15:30 220 0 gusting 1 10.4
2017-Sep-23 15:15 183 1 gusting 2 10.2
2017-Sep-23 15:00 176 1 gusting 2 3.810.1 Thunderstorm.
2017-Sep-23 14:45 161 1 gusting 2 9.8
2017-Sep-23 14:30 179 1 gusting 2 9.6
2017-Sep-23 14:15 196 0 gusting 1 9.5
2017-Sep-23 14:00 325 0 gusting 1 5.4 9.5 Thunderstorm.
2017-Sep-23 13:45 047 0 gusting 0 9.3
2017-Sep-23 13:30 047 0 gusting 1 9.2
2017-Sep-23 13:15 303 0 gusting 4 9.3
2017-Sep-23 13:00 324 2 gusting 4 5.4 9.3
2017-Sep-23 12:45 330 1 gusting 3 9.3
2017-Sep-23 12:30 315 0 gusting 1 9.3
2017-Sep-23 12:15 308 0 gusting 0 9.2
2017-Sep-23 12:00 209 0 gusting 0 9.1
2017-Sep-23 11:45 227 0 gusting 1 9.1
2017-Sep-23 11:30 002 0 gusting 1 9.0
2017-Sep-23 11:15 020 0 gusting 1 8.9
2017-Sep-23 11:00 006 0 gusting 1 5.4 9.0
2017-Sep-23 10:45 250 0 gusting 1 9.1
2017-Sep-23 10:30 265 0 gusting 2 9.1
2017-Sep-23 10:15 261 1 gusting 2 9.0
2017-Sep-23 10:00 261 0 gusting 1 5.4 8.9
2017-Sep-23 09:45 053 0 gusting 3 8.2
2017-Sep-23 09:30 233 0 gusting 1 8.9
2017-Sep-23 09:15 196 0 gusting 1 8.9
2017-Sep-23 09:00 214 0 gusting 1 5.4 8.9
2017-Sep-23 08:45 261 0 gusting 1 8.6
2017-Sep-23 08:30 261 1 gusting 2 9.3
2017-Sep-23 08:15 227 0 gusting 1 9.5
2017-Sep-23 08:00 352 0 gusting 1 5.4 9.7